Weather in Shibylgi

Russia / Chuvash Republic     55°36′55″N   47°26′34″E
temp.,
°C
wind,
m/s
gust,
m/s
humid.,
%
clouds,
%
prec.,
mm/h
press.,
hPa
HPBL,
m
7 march, sun
sun700:00−15w339713 0.0 101220
03:00−15wsw339740 0.1 101229
06:00−16wsw339784 0.1 101131
09:00−13sw469584 0.1 1011229
12:00−8sw588971 0.0 1008579
15:00−7ssw6108285 0.0 1005798
18:00−8ssw61395100 0.3 1002851
21:00−7s81494100 1.4 998856
8 march, mon
mon800:00−6ssw71494100 0.9 994793
03:00−4sw71395100 2.1 993687
06:00−11w51086100 0.5 994237
09:00−9wsw6118161 0.5 997383
12:00−6sw588996 0.0 999539
15:00−5sw588898 0.1 998815
18:00−8sw2395100 0.2 99824
21:00−10ssw2396100 0.2 99923
9 march, tue
tue900:00−12nw449587 0.1 100064
03:00−15wnw479750 0.1 100398
06:00−18wnw469996 0.0 1005114
09:00−16wnw479698 0.1 1007266
12:00−14wnw5793100 0.0 1009371
15:00−13wnw589199 0.1 1010519
18:00−17wnw469799 0.0 101398
21:00−18nw469899 0.1 101595
10 march, wed
wed1000:00−20nw3410094 0.1 101556
03:00−22nw3410094 0.1 101680
06:00−24nw469998 0.0 1017121
09:00−24nnw479799 0.1 1019264
12:00−21nw569487 0.0 1020395
15:00−20nw589292 0.0 1021478
18:00−23wnw479691 0.0 102395
21:00−24wnw459745 0.0 102477
11 march, thu
thu1100:00−25wnw47990 0.0 1024107
03:00−25w489924 0.0 1025133
06:00−26w499986 0.0 1026134
09:00−21w699782 0.0 1026251
12:00−16w699266 0.0 1026317
15:00−13w589251 0.0 1027331
18:00−17w489628 0.0 1028131
21:00−20w449814 0.0 102968